Location: Alphaba - Cockrum - Ingrams Mill Volunteer Fire Department Station 2
(34.7915°N, 89.7598°W)
Time: 09:50:27
(UTC+00:00)

SJ-12 - Pass Details

Date: 11 December 2025
Orbit: 517 x 524 km, 97.8° (Epoch: 25 January)

Event Time Altitude Azimuth Distance (km) Brightness Sun altitude
Rises 23:12:24 0° 145° (SE) 2,622 7.2 -5.3°
Reaches altitude 10° 23:14:38 10° 135° (SE) 1,740 6.2 -5.7°
Maximum altitude 23:17:57 30° 73° (ENE) 939 4.5 -6.3°
Drops below altitude 10° 23:21:17 10° 10° (N) 1,754 6.1 -6.9°
Sets 23:23:33 0° 0° (N) 2,647 7.1 -7.4°
